[[{"header":{"parameterUnit":"m.s-1","parameterCategory":1,"la1":30.2991,"la2":30.254,"lo1":-89.0895,"lo2":-89.0444,"dy":0.0017,"dx":0.0017,"nx":28,"ny":28,"refTime":"2025-11-18T09:00:00:Z","depth":0,"parameterNumber":2,"parameterNumberName":"U-component_of_WINDS"},"data":[0,0,0,0,0,0,0,0,0,0,0,0,0,0,0,0,0,0,0,0,0,0,0,0,0,0,0,0,0,0,0,0,0,0,0,0,0,0,0,0,0,0,0,0,0,0,0,0,0,0,0,0,0,0,0,0,0,0,0.47,0.4701,0,0.4808,0.4809,0.481,0.4852,0.4851,0.4851,0.4851,0.4962,0.4965,0.4968,0,0,0,0,0,0,0,0,0,0,0,0,0,0.4532,0.4535,0.47,0.4701,0.4703,0.4807,0.4809,0.481,0.4852,0.4851,0.4851,0.4851,0.4961,0.4965,0.4968,0,0,0,0,0,0,0,0,0,0,0,0,0,0.4619,0.4536,0.47,0.4736,0.474,0.4807,0.4809,0.4811,0.4852,0.4851,0.4851,0.485,0.4959,0.4964,0.4969,0.5008,0,0,0.4984,0.4986,0,0,0,0,0,0,0,0,0.4614,0.4625,0.4729,0.4734,0.4739,0.4816,0.479,0.4877,0.4852,0.4809,0.4851,0.485,0.4914,0.4922,0.4943,0.5013,0.5018,0.4984,0.4987,0.4989,0.4991,0,0,0,0,0,0,0,0.4608,0.462,0.4743,0.4731,0.4736,0.4747,0.4759,0.4807,0.4863,0.4813,0.4816,0.4828,0.4916,0.4939,0.4946,0.502,0.4984,0.4988,0.4991,0.4993,0.5128,0.5129,0,0,0,0,0,0,0.4595,0.4615,0.4739,0.4746,0.4674,0.4751,0.4764,0.4791,0.4862,0.4873,0.4829,0.483,0.4931,0.4941,0.495,0.5002,0.4989,0.4994,0.4997,0.5128,0.5129,0.5129,0,0,0,0,0,0,0.4592,0.4606,0.4735,0.4681,0.4699,0.4754,0.4785,0.4794,0.4816,0.4874,0.4884,0.4841,0.4931,0.4944,0.4994,0.5006,0.4996,0.5,0.5127,0.5128,0.5129,0.5104,0,0,0,0,0,0,0.4587,0.4605,0.462,0.4681,0.4701,0.4776,0.4785,0.4796,0.4825,0.4827,0.4889,0.4899,0.4931,0.4986,0.4999,0.5013,0.5004,0.5126,0.5127,0.5129,0.5104,0.5104,0.5104,0,0,0,0,0,0.4581,0.4608,0.462,0.4635,0.4721,0.4776,0.4788,0.4824,0.4825,0.4841,0.4879,0.4897,0.5003,0.4991,0.5005,0.5021,0.5126,0.5127,0.5129,0.5104,0.5104,0.5104,0,0,0,0,0,0,0.4547,0.4617,0.4631,0.468,0.4722,0.4783,0.4805,0.4823,0.4866,0.4867,0.4911,0.4925,0.4971,0.5001,0.4987,0.5063,0.5065,0.507,0.5042,0.5042,0.5042,0.5034,0.5008,0,0,0,0,0,0.4545,0.4583,0.4643,0.468,0.4701,0.4749,0.4774,0.4799,0.4844,0.4862,0.4903,0.4947,0.499,0.5018,0.5061,0.5108,0.5123,0.5126,0.5126,0.5126,0.5129,0.5158,0.516,0.5134,0.5134,0.5134,0,0,0.4542,0.4585,0.4606,0.4674,0.471,0.4749,0.4763,0.4804,0.4834,0.4869,0.4919,0.495,0.5002,0.5051,0.5075,0.5077,0.514,0.5128,0.5127,0.5131,0.5159,0.5162,0.5164,0.5135,0.5135,0.5135,0,0,0.4556,0.4592,0.4627,0.4663,0.4716,0.4748,0.4757,0.4816,0.4838,0.4889,0.4915,0.4952,0.5025,0.5061,0.5089,0.5117,0.5136,0.513,0.5131,0.5157,0.5159,0.5161,0.5172,0.5175,0.5133,0.5133,0.5133,0,0.4545,0.4605,0.4643,0.4683,0.4712,0.4745,0.4781,0.4814,0.4879,0.4899,0.4901,0.4994,0.5031,0.5089,0.5096,0.5118,0.5129,0.5124,0.5156,0.5158,0.5161,0.5172,0.5175,0.5132,0.5132,0.5133,0.5133,0,0.459,0.4631,0.4653,0.4715,0.4747,0.4784,0.4829,0.4856,0.4878,0.491,0.4962,0.5007,0.5061,0.5076,0.5098,0.5138,0.5138,0.5147,0.5151,0.5162,0.5173,0.5177,0.5131,0.5131,0.5131,0.5132,0,0,0.4586,0.4668,0.4676,0.4704,0.4766,0.4799,0.4838,0.489,0.4913,0.4957,0.4992,0.5053,0.5063,0.5094,0.512,0.5144,0.5164,0.5151,0.5153,0.5152,0.5212,0.5204,0.5209,0.5177,0.5178,0.5178,0.5208,0,0.4608,0.468,0.4716,0.4772,0.4811,0.4843,0.4878,0.492,0.4951,0.4989,0.5023,0.5066,0.5075,0.5094,0.5119,0.5156,0.5177,0.5155,0.521,0.5212,0.5196,0.5214,0.5207,0.5232,0.5212,0.5213,0.5213,0,0.4645,0.4688,0.4748,0.4806,0.4824,0.4854,0.4905,0.494,0.4989,0.501,0.5045,0.5071,0.5114,0.5114,0.5175,0.5159,0.5184,0.5206,0.5208,0.5215,0.5213,0.5222,0.5241,0.5245,0.522,0.522,0.5219,0,0.4636,0.471,0.4756,0.4779,0.4847,0.4868,0.4898,0.4945,0.4974,0.5019,0.5038,0.5087,0.5114,0.5151,0.5189,0.5186,0.5247,0.525,0.5266,0.5265,0.5278,0.5277,0.5301,0.5293,0.5293,0.5293,0.5293,0,0.4658,0.4694,0.4753,0.4781,0.4822,0.4863,0.4903,0.4935,0.4978,0.5013,0.5043,0.5076,0.5124,0.5163,0.5194,0.524,0.5252,0.527,0.5278,0.5268,0.5266,0.5285,0.5285,0.5294,0.5294,0.5293,0.5293,0,0.4656,0.4697,0.4749,0.4809,0.4825,0.4853,0.4905,0.4934,0.4967,0.5011,0.5024,0.5075,0.5122,0.5164,0.5227,0.5247,0.5295,0.5304,0.5279,0.5283,0.5297,0.5295,0.5336,0.5343,0.5329,0.5329,0.5329,0,0.4668,0.4696,0.476,0.4785,0.4814,0.4855,0.4885,0.4926,0.4956,0.5014,0.5036,0.5085,0.5127,0.5202,0.5245,0.5293,0.5304,0.5315,0.5312,0.5301,0.5305,0.5303,0.5307,0.5315,0.5315,0.5315,0.5315,0,0.4684,0.4703,0.4745,0.4793,0.4828,0.4868,0.491,0.4929,0.4979,0.5011,0.5059,0.5092,0.5156,0.5205,0.5258,0.5289,0.5311,0.5316,0.5322,0.5312,0.5296,0.5306,0.5279,0.5315,0.5315,0.5315,0.5315,0.5315,0.469,0.4717,0.4766,0.4811,0.4847,0.4885,0.4915,0.4951,0.4992,0.5048,0.507,0.512,0.5168,0.5242,0.5273,0.5313,0.5316,0.5325,0.5328,0.533,0.5328,0.5289,0.5322,0.5322,0.5322,0.5323,0.5323,0,0.4709,0.4742,0.4783,0.484,0.4876,0.4892,0.4939,0.4968,0.5011,0.5054,0.5095,0.5151,0.5199,0.5246,0.5297,0.532,0.5331,0.5332,0.5331,0.5338,0.5322,0.5311,0.5322,0.5322,0.5322,0.5322,0.5322,0.5322,0.4723,0.4769,0.4794,0.4858,0.4892,0.494,0.4966,0.5001,0.5036,0.5097,0.5137,0.5167,0.5212,0.5266,0.5311,0.5324,0.5341,0.534,0.5355,0.5339,0.5339,0.5338,0.5329,0.5343,0.5343,0.5368,0.5368,0.5368]},{"header":{"parameterUnit":"m.s-1","parameterCategory":1,"la1":30.2991,"la2":30.254,"lo1":-89.0895,"lo2":-89.0444,"dy":0.0017,"dx":0.0017,"nx":28,"ny":28,"refTime":"2025-11-18T09:00:00:Z","depth":0,"parameterNumber":3,"parameterNumberName":"V-component_of_WINDS"},"data":[0,0,0,0,0,0,0,0,0,0,0,0,0,0,0,0,0,0,0,0,0,0,0,0,0,0,0,0,0,0,0,0,0,0,0,0,0,0,0,0,0,0,0,0,0,0,0,0,0,0,0,0,0,0,0,0,0,0,0.2992,0.2991,0,0.2899,0.2898,0.2897,0.2868,0.2868,0.2869,0.2869,0.2767,0.2764,0.276,0,0,0,0,0,0,0,0,0,0,0,0,0,0.3136,0.3134,0.2992,0.2991,0.2989,0.2899,0.2898,0.2897,0.2868,0.2868,0.2869,0.2869,0.2768,0.2764,0.276,0,0,0,0,0,0,0,0,0,0,0,0,0,0.3061,0.3133,0.2992,0.2964,0.2961,0.2899,0.2898,0.2896,0.2868,0.2868,0.2869,0.287,0.2769,0.2764,0.276,0.2716,0,0,0.2745,0.2743,0,0,0,0,0,0,0,0,0.3066,0.3056,0.297,0.2966,0.2962,0.2896,0.2911,0.2836,0.2867,0.2903,0.2869,0.287,0.2809,0.2801,0.2781,0.2712,0.2707,0.2745,0.2742,0.274,0.2738,0,0,0,0,0,0,0,0.3071,0.306,0.2955,0.2968,0.2964,0.2954,0.2944,0.2897,0.2853,0.29,0.2898,0.2887,0.2807,0.2786,0.2779,0.2706,0.2745,0.2741,0.2738,0.2736,0.2594,0.2593,0,0,0,0,0,0,0.3082,0.3064,0.2958,0.2952,0.3017,0.2951,0.294,0.2916,0.2853,0.2844,0.2887,0.2886,0.2794,0.2784,0.2775,0.272,0.274,0.2735,0.2733,0.2595,0.2594,0.2593,0,0,0,0,0,0,0.3085,0.3073,0.2961,0.3008,0.2993,0.2948,0.2921,0.2914,0.2894,0.2844,0.2835,0.2874,0.2794,0.2782,0.2731,0.2716,0.2733,0.2729,0.2596,0.2595,0.2593,0.2609,0,0,0,0,0,0,0.3089,0.3074,0.3059,0.3008,0.299,0.2922,0.2921,0.2912,0.2886,0.2885,0.283,0.2821,0.2794,0.2739,0.2727,0.2709,0.2725,0.2597,0.2595,0.2594,0.261,0.2608,0.2607,0,0,0,0,0,0.3095,0.3066,0.3058,0.3046,0.2971,0.2921,0.2911,0.2882,0.2885,0.2869,0.2836,0.2823,0.272,0.2734,0.272,0.2701,0.2598,0.2596,0.2594,0.261,0.2609,0.2607,0,0,0,0,0,0,0.3114,0.3058,0.305,0.3004,0.2968,0.2916,0.2894,0.2882,0.2842,0.2842,0.2805,0.2793,0.2745,0.2718,0.2735,0.2655,0.2658,0.2653,0.2675,0.2673,0.2672,0.2679,0.2721,0,0,0,0,0,0.3113,0.308,0.3032,0.2996,0.2978,0.294,0.2917,0.2898,0.2858,0.2842,0.2806,0.2765,0.2724,0.2697,0.2656,0.2606,0.2592,0.2586,0.2584,0.2584,0.2579,0.255,0.2546,0.2586,0.2586,0.2586,0,0,0.311,0.3076,0.3057,0.2999,0.2969,0.2932,0.2927,0.2889,0.2861,0.2835,0.2786,0.2758,0.271,0.266,0.2636,0.2636,0.2565,0.2581,0.2581,0.2577,0.2547,0.2543,0.254,0.2585,0.2585,0.2585,0,0,0.3087,0.3058,0.3025,0.2995,0.2951,0.2925,0.2917,0.2867,0.2849,0.2799,0.2779,0.2744,0.2673,0.264,0.2614,0.2578,0.2563,0.2565,0.2558,0.253,0.2526,0.2523,0.2509,0.2505,0.2561,0.2561,0.2561,0,0.3089,0.3036,0.3009,0.2972,0.2946,0.2924,0.2888,0.286,0.2803,0.2784,0.2786,0.2697,0.2663,0.2604,0.2595,0.2575,0.2563,0.2571,0.253,0.2526,0.2523,0.2509,0.2504,0.2562,0.2562,0.2562,0.2562,0,0.3039,0.3003,0.2981,0.2929,0.2901,0.2865,0.283,0.2804,0.2787,0.2761,0.271,0.2669,0.2619,0.2603,0.2586,0.2541,0.2543,0.2537,0.2539,0.252,0.2506,0.2501,0.2562,0.2562,0.2562,0.2562,0,0,0.3025,0.296,0.2952,0.2928,0.2877,0.2847,0.2808,0.2762,0.274,0.2701,0.2667,0.2608,0.2602,0.2573,0.2551,0.2526,0.2499,0.2523,0.2522,0.2519,0.2445,0.245,0.2444,0.2489,0.2488,0.2487,0.2449,0,0.2995,0.2929,0.2903,0.2849,0.2813,0.2792,0.2758,0.2721,0.2696,0.266,0.263,0.2588,0.2585,0.2567,0.2541,0.2508,0.2483,0.251,0.2455,0.2453,0.2467,0.2437,0.2441,0.2407,0.2444,0.2443,0.2442,0,0.2951,0.2914,0.2857,0.281,0.2794,0.2765,0.272,0.2687,0.2644,0.2626,0.2594,0.2574,0.253,0.2535,0.2474,0.2493,0.2468,0.2448,0.2446,0.2439,0.2446,0.2428,0.2396,0.2391,0.2434,0.2434,0.2435,0,0.2945,0.2881,0.2839,0.2819,0.2763,0.2743,0.2718,0.2676,0.265,0.2609,0.2591,0.2545,0.252,0.2484,0.2451,0.2458,0.2392,0.2395,0.2374,0.2375,0.2361,0.2362,0.2323,0.2346,0.2347,0.2347,0.2347,0,0.2914,0.2879,0.2836,0.2809,0.2769,0.2739,0.2699,0.2672,0.2635,0.2601,0.2578,0.2546,0.2506,0.2468,0.2441,0.2394,0.2382,0.2365,0.2358,0.2367,0.2369,0.235,0.2351,0.2345,0.2346,0.2346,0.2346,0,0.2901,0.2871,0.2823,0.2774,0.2761,0.2734,0.2691,0.2663,0.2636,0.2593,0.2581,0.2538,0.2492,0.2456,0.2396,0.2378,0.2327,0.232,0.2343,0.2339,0.232,0.2322,0.2267,0.2258,0.2288,0.2288,0.2288,0,0.2883,0.2856,0.2805,0.2782,0.2759,0.2721,0.2695,0.2663,0.2636,0.2585,0.2563,0.2516,0.2477,0.2404,0.2365,0.2318,0.2309,0.2293,0.2302,0.2311,0.2308,0.231,0.2306,0.2292,0.2292,0.2292,0.2292,0,0.2853,0.2839,0.2804,0.2762,0.2732,0.2697,0.2661,0.2643,0.2604,0.2574,0.2528,0.2498,0.2437,0.239,0.2339,0.231,0.2294,0.229,0.2282,0.229,0.2304,0.2295,0.2339,0.2291,0.2291,0.2291,0.2291,0.2291,0.2836,0.2811,0.2772,0.2732,0.2702,0.2669,0.2641,0.2611,0.2574,0.2524,0.2506,0.2459,0.2415,0.2345,0.2316,0.2277,0.2276,0.2265,0.2262,0.226,0.2261,0.2311,0.2267,0.2267,0.2267,0.2267,0.2267,0,0.2804,0.2778,0.2742,0.2694,0.2662,0.2653,0.2612,0.2585,0.2545,0.2507,0.2469,0.2416,0.237,0.2328,0.228,0.2256,0.2247,0.2244,0.2245,0.2238,0.2265,0.2276,0.2252,0.2252,0.2252,0.2252,0.2252,0.2252,0.2784,0.2741,0.2723,0.2664,0.2637,0.2593,0.2571,0.2539,0.2509,0.2451,0.2414,0.2388,0.2348,0.2296,0.2253,0.2241,0.2224,0.2223,0.2209,0.2235,0.2237,0.2239,0.2249,0.222,0.222,0.2186,0.2186,0.2185]}]]